Regional Weather Roundup
Issued by NWS

Home | Current Version | Previous Version | Text Only | Print | Product List | Glossary On
Versions: 1 2 3 4 5 6 7 8 9 10 11 12 13 14 15 16 17 18 19 20 21 22 23 24 25 26 27 28 29 30 31 32 33 34 35 36 37 38 39 40 41 42 43 44 45 46 47 48 49 50
000
ASUS43 KBIS 100310
RWRND

NORTH DAKOTA REGIONAL WEATHER ROUNDUP
NATIONAL WEATHER SERVICE BISMARCK ND
900 PM CST FRI DEC 09 2016

NOTE: "FAIR" INDICATES FEW OR NO CLOUDS BELOW 12,000 FEET WITH NO
SIGNIFICANT WEATHER AND/OR OBSTRUCTIONS TO VISIBILITY.


NDZ001>003-009>011-017-100400-
NORTHWEST NORTH DAKOTA

CITY           SKY/WX    TMP DP  RH WIND       PRES   REMARKS
WILLISTON      CLOUDY   -14 -19  79 N3        30.47F
MINOT          CLOUDY   -14 -19  79 W5        30.50R WCI -26
MINOT AFB      CLOUDY   -19 -25  74 NW8       30.49S WCI -37
$$

NDZ018>021-031>035-040>046-100400-
SOUTHWEST NORTH DAKOTA

CITY           SKY/WX    TMP DP  RH WIND       PRES   REMARKS
BISMARCK       CLOUDY   -16 -20  82 CALM      30.52F
DICKINSON      CLOUDY   -15 -20  78 S3        30.36
GARRISON         N/A    -15 -19  82 N3        30.47F
HETTINGER ARPT CLOUDY    -9 -12  87 S3        30.38S
$$

NDZ004>008-012>016-024-026-027-054-100400-
NORTHEAST NORTH DAKOTA

CITY           SKY/WX    TMP DP  RH WIND       PRES   REMARKS
GRAND FORKS    CLOUDY    -5 -10  79 NW8       30.56S WCI -20
GRND FRKS AFB  MOCLDY    -6 -12  76 NW7       30.55S WCI -20
DEVILS LAKE    CLEAR    -12 -17  78 W9        30.51F WCI -30
$$

NDZ022-023-025-028>030-036>039-047>053-100400-
SOUTHEAST NORTH DAKOTA

CITY           SKY/WX    TMP DP  RH WIND       PRES   REMARKS
FARGO          CLOUDY    -2 -10  69 W9        30.56S WCI -18
JAMESTOWN      CLOUDY   -12 -17  78 NW12      30.51S WCI -32
$$





USA.gov is the U.S. government's official web portal to all federal, state and local government web resources and services.